Regional Weather Roundup
Issued by NWS

Home | Current Version | Previous Version | Graphics & Text | Print | Product List | Glossary On
Versions: 1 2 3 4 5 6 7 8 9 10 11 12 13 14 15 16 17 18 19 20 21 22 23 24 25 26 27
000
ASUS45 KCYS 250310
RWRWY

WYOMING REGIONAL WEATHER ROUNDUP
NATIONAL WEATHER SERVICE CHEYENNE WY
900 PM MDT MON APR 24 2017

NOTE:  "FAIR" INDICATES FEW OR NO CLOUDS BELOW 12,000 FEET
WITH NO SIGNIFICANT WEATHER AND/OR OBSTRUCTIONS TO VISIBILITY.

WYZ001-250400-
YELLOWSTONE NATIONAL PARK

CITY           SKY/WX    TMP DP  RH WIND       PRES   REMARKS
LK YELLOWSTONE   N/A     31  30  96 CALM      29.64R
W YELLOWSTONE  NOT AVBL

$$
WYZ002>013-054>058-071-098>099-250400-
NORTHERN WYOMING

CITY           SKY/WX    TMP DP  RH WIND       PRES   REMARKS
JACKSON        CLOUDY    34  34 100 SW9       29.64R WCI  26
CODY           LGT RAIN  39  36  89 N7        29.59R WCI  34
GREYBULL       CLOUDY    48  42  80 NW16      29.51R
WORLAND        LGT RAIN  48  42  80 N9        29.50R
SHERIDAN       LGT RAIN  44  40  85 NE12      29.58R
BUFFALO        LGT RAIN  42  37  82 NW7       29.58R
GILLETTE       CLOUDY    46  46 100 NE13      29.54R
HULETT         CLOUDY    46  37  71 E14G22    29.61R
NEWCASTLE      FAIR      50  34  53 E8G24     29.56S

$$
WYZ014>020-022>026-101>103-250400-
CENTRAL WYOMING

CITY           SKY/WX    TMP DP  RH WIND       PRES   REMARKS
BIG PINEY      FAIR      34  29  82 N10       29.64S WCI  26
PINEDALE       FAIR      30  30 100 NW3       29.65R
DUBOIS         MOCLDY    34  30  86 NW12      29.57S WCI  25
LANDER         MOCLDY    41  35  79 W6        29.53R
RIVERTON       RAIN      41  37  86 NW17      29.54R
CASPER         LGT RAIN  42  38  85 NW10      29.51F
DOUGLAS        CLOUDY    49  39  68 SE10      29.53F

$$
WYZ021-027>030-104>119-250400-
SOUTHERN WYOMING

CITY           SKY/WX    TMP DP  RH WIND       PRES   REMARKS
EVANSTON       FOG       32  32 100 SW9       29.74R VSB 3/4 WCI  24
KEMMERER         N/A     32  32 100 W18       29.68R WCI  20
FORT BRIDGER   CLOUDY    34  34 100 W17       29.74R WCI  24
ROCK SPRINGS   CLOUDY    37  31  78 W20       29.66R WCI  27
DIXON            N/A     34  33  95 E5        29.70S WCI  30
RAWLINS        MOCLDY    36  33  89 SW16G23   29.62R WCI  26
SARATOGA       LGT RAIN  34  34 100 S13G18    29.66R WCI  25
LARAMIE        LGT RAIN  39  37  92 SE17      29.60F WCI  30
CHEYENNE       MOCLDY    41  38  89 NE5       29.60F
TORRINGTON     LGT RAIN  49  45  86 SE6       29.57F
PINE BLUFFS    CLOUDY    45  41  87 N8        29.62F

$$




USA.gov is the U.S. government's official web portal to all federal, state and local government web resources and services.